KLM467 CYQX-EINN

Flight info

Callsign KLM467
Flight time N/A
Altitude 35000
Route YQX DCT ELSIR DCT 50N050W 51N040W 52N030W 52N020W DCT LIMRI/N0458F350 DCT XETBO DCT LUPOR LUPOR2E
Aircraft B739/M-SDE2E3FGHIRWXY/LB1

Departure

Time 2026-04-29 08:23
Airport Gander International Airport (CYQX)

Arrival

Time N/A
Airport Shannon Airport (EINN)
Time Latitude Longitude Altitude Speed Heading
2026-04-29 08:11 48.94303 -54.55736 431 ft 0 kts 80°
2026-04-29 08:16 48.94299 -54.55771 425 ft 4 kts 83°
2026-04-29 08:16 48.94297 -54.55812 446 ft 4 kts 86°
2026-04-29 08:16 48.94296 -54.55853 447 ft 4 kts 89°
2026-04-29 08:16 48.94295 -54.55894 447 ft 4 kts 86°
2026-04-29 08:17 48.94294 -54.55918 447 ft 2 kts 80°
2026-04-29 08:17 48.94293 -54.55891 447 ft 4 kts 99°
2026-04-29 08:17 48.94285 -54.55852 447 ft 4 kts 106°
2026-04-29 08:17 48.94279 -54.55809 447 ft 0 kts 281°
2026-04-29 08:18 48.94279 -54.55808 447 ft 0 kts 281°
2026-04-29 08:19 48.94284 -54.55843 447 ft 9 kts 281°
2026-04-29 08:19 48.94317 -54.55978 448 ft 19 kts 301°
2026-04-29 08:20 48.94435 -54.56102 448 ft 23 kts
2026-04-29 08:20 48.94590 -54.56062 438 ft 22 kts 11°
2026-04-29 08:20 48.94736 -54.56006 435 ft 22 kts 35°
2026-04-29 08:20 48.94732 -54.55798 435 ft 21 kts 111°
2026-04-29 08:21 48.94685 -54.55591 432 ft 20 kts 108°
2026-04-29 08:21 48.94642 -54.55390 436 ft 20 kts 108°
2026-04-29 08:21 48.94609 -54.55192 437 ft 19 kts 76°
2026-04-29 08:21 48.94594 -54.55072 438 ft 11 kts 215°
2026-04-29 08:22 48.94604 -54.55223 432 ft 34 kts 289°
2026-04-29 08:22 48.94759 -54.55941 441 ft 107 kts 288°
2026-04-29 08:22 48.95052 -54.57310 457 ft 162 kts 288°
2026-04-29 08:22 48.95437 -54.59102 798 ft 179 kts 288°
2026-04-29 08:23 48.95819 -54.60890 1635 ft 182 kts 287°
2026-04-29 08:23 48.96228 -54.62873 1962 ft 210 kts 287°
2026-04-29 08:23 48.96627 -54.65095 2365 ft 224 kts 276°
2026-04-29 08:23 48.96386 -54.67438 2717 ft 234 kts 243°
2026-04-29 08:24 48.95314 -54.69333 3019 ft 247 kts 212°
2026-04-29 08:24 48.93662 -54.70169 3472 ft 257 kts 181°
2026-04-29 08:24 48.91922 -54.69632 4170 ft 258 kts 153°
2026-04-29 08:24 48.90558 -54.67874 4842 ft 262 kts 123°
2026-04-29 08:25 48.89931 -54.65288 5542 ft 264 kts 96°
2026-04-29 08:25 48.89866 -54.62510 6327 ft 263 kts 89°
2026-04-29 08:25 48.89909 -54.59690 6940 ft 269 kts 88°
2026-04-29 08:25 48.89950 -54.56840 7596 ft 272 kts 88°
2026-04-29 08:26 48.89997 -54.53954 8235 ft 275 kts 83°
2026-04-29 08:26 48.90469 -54.51138 8863 ft 276 kts 68°
2026-04-29 08:26 48.91164 -54.48396 9530 ft 279 kts 67°
2026-04-29 08:26 48.91880 -54.45632 10182 ft 282 kts 67°
2026-04-29 08:27 48.92604 -54.42830 10660 ft 291 kts 66°
2026-04-29 08:27 48.93366 -54.39864 10804 ft 311 kts 67°
2026-04-29 08:27 48.94174 -54.36692 10982 ft 330 kts 67°
2026-04-29 08:27 48.95019 -54.33346 11124 ft 348 kts 67°
2026-04-29 08:28 48.95905 -54.29813 11256 ft 365 kts 67°
2026-04-29 08:28 48.96825 -54.26121 11386 ft 381 kts 67°
2026-04-29 08:28 48.97772 -54.22303 11708 ft 389 kts 67°
2026-04-29 08:28 48.98725 -54.18444 12206 ft 392 kts 67°
2026-04-29 08:29 48.99684 -54.14548 12738 ft 394 kts 67°
2026-04-29 08:29 49.00648 -54.10626 13238 ft 396 kts 67°
2026-04-29 08:29 49.01615 -54.06684 13717 ft 399 kts 66°
2026-04-29 08:29 49.02595 -54.02689 14190 ft 403 kts 66°
2026-04-29 08:30 49.03575 -53.98682 14645 ft 406 kts 66°
2026-04-29 08:30 49.05560 -53.90549 15497 ft 413 kts 67°
2026-04-29 08:30 49.06554 -53.86463 15932 ft 416 kts 67°
2026-04-29 08:31 49.07562 -53.82314 16358 ft 419 kts 67°
2026-04-29 08:31 49.08577 -53.78131 16793 ft 422 kts 67°
2026-04-29 08:31 49.09599 -53.73905 17186 ft 425 kts 67°
2026-04-29 08:31 49.10624 -53.69664 17568 ft 428 kts 67°
2026-04-29 08:32 49.11655 -53.65387 17951 ft 431 kts 67°
2026-04-29 08:32 49.12695 -53.61065 18330 ft 435 kts 67°
2026-04-29 08:32 49.13740 -53.56715 18626 ft 439 kts 67°
2026-04-29 08:32 49.14795 -53.52314 18931 ft 442 kts 67°
2026-04-29 08:33 49.15851 -53.47896 19281 ft 443 kts 68°
2026-04-29 08:33 49.16911 -53.43454 19623 ft 446 kts 68°
2026-04-29 08:33 49.17975 -53.38987 19935 ft 448 kts 68°
2026-04-29 08:33 49.19042 -53.34499 20269 ft 451 kts 68°
2026-04-29 08:34 49.20113 -53.29982 20602 ft 453 kts 68°
2026-04-29 08:34 49.21189 -53.25437 20936 ft 456 kts 68°
2026-04-29 08:34 49.22270 -53.20863 21255 ft 458 kts 68°
2026-04-29 08:34 49.23354 -53.16262 21543 ft 461 kts 68°
2026-04-29 08:35 49.24444 -53.11629 21843 ft 463 kts 68°
2026-04-29 08:35 49.25535 -53.06980 22139 ft 465 kts 68°
2026-04-29 08:35 49.26631 -53.02303 22427 ft 468 kts 68°
2026-04-29 08:35 49.27716 -52.97658 22703 ft 470 kts 68°
2026-04-29 08:36 49.28818 -52.92933 22990 ft 472 kts 68°
2026-04-29 08:36 49.29922 -52.88188 23292 ft 474 kts 68°
2026-04-29 08:36 49.31029 -52.83420 23579 ft 476 kts 68°
2026-04-29 08:36 49.32137 -52.78636 23836 ft 478 kts 68°
2026-04-29 08:37 49.33251 -52.73819 24052 ft 481 kts 68°
2026-04-29 08:37 49.34368 -52.68976 24257 ft 483 kts 68°
2026-04-29 08:37 49.35489 -52.64106 24517 ft 484 kts 68°
2026-04-29 08:37 49.36606 -52.59238 24790 ft 484 kts 69°
2026-04-29 08:38 49.37728 -52.54337 25048 ft 485 kts 68°
2026-04-29 08:38 49.38845 -52.49449 25282 ft 487 kts 69°
2026-04-29 08:38 49.39966 -52.44533 25558 ft 487 kts 68°
2026-04-29 08:38 49.41079 -52.39637 25936 ft 485 kts 68°
2026-04-29 08:39 49.42184 -52.34766 26373 ft 482 kts 68°
2026-04-29 08:39 49.43282 -52.29915 26805 ft 479 kts 68°
2026-04-29 08:39 49.44373 -52.25084 27172 ft 478 kts 68°
2026-04-29 08:39 49.45461 -52.20260 27510 ft 477 kts 68°
2026-04-29 08:40 49.46532 -52.15497 27887 ft 476 kts 68°
2026-04-29 08:40 49.47606 -52.10708 28319 ft 474 kts 68°
2026-04-29 08:40 49.48678 -52.05924 28741 ft 471 kts 68°
2026-04-29 08:40 49.49742 -52.01164 29134 ft 470 kts 68°
2026-04-29 08:41 49.50831 -51.96426 29510 ft 468 kts 66°
2026-04-29 08:41 49.52012 -51.91764 29906 ft 466 kts 65°
2026-04-29 08:41 49.53234 -51.87152 30333 ft 464 kts 64°
2026-04-29 08:41 49.54461 -51.82574 30740 ft 461 kts 64°
2026-04-29 08:42 49.55677 -51.78013 31099 ft 459 kts 64°
2026-04-29 08:42 49.56875 -51.73471 31399 ft 458 kts 65°
2026-04-29 08:42 49.58064 -51.68915 31672 ft 458 kts 65°
2026-04-29 08:42 49.59242 -51.64360 31976 ft 456 kts 65°
2026-04-29 08:43 49.60409 -51.59826 32308 ft 454 kts 65°
2026-04-29 08:43 49.61567 -51.55307 32625 ft 453 kts 65°
2026-04-29 08:43 49.62719 -51.50801 32906 ft 452 kts 65°
2026-04-29 08:43 49.63867 -51.46303 33174 ft 451 kts 65°
2026-04-29 08:44 49.65011 -51.41811 33456 ft 449 kts 65°
2026-04-29 08:44 49.66151 -51.37328 33743 ft 448 kts 65°
2026-04-29 08:44 49.67286 -51.32858 34004 ft 447 kts 65°
2026-04-29 08:44 49.68415 -51.28402 34243 ft 446 kts 65°
2026-04-29 08:45 49.69547 -51.23927 34468 ft 445 kts 65°
2026-04-29 08:45 49.70670 -51.19478 34663 ft 444 kts 65°
2026-04-29 08:45 49.71789 -51.15038 34811 ft 445 kts 65°
2026-04-29 08:45 49.72910 -51.10579 34981 ft 445 kts 64°
2026-04-29 08:46 49.74032 -51.06108 35151 ft 445 kts 64°
2026-04-29 08:46 49.75146 -51.01659 35331 ft 444 kts 64°
2026-04-29 08:46 49.76262 -50.97193 35349 ft 446 kts 64°
2026-04-29 08:47 49.78492 -50.88244 35375 ft 445 kts 65°
2026-04-29 08:47 49.80711 -50.79296 35369 ft 444 kts 65°
2026-04-29 08:48 49.82915 -50.70380 35384 ft 443 kts 64°
2026-04-29 08:48 49.85095 -50.61525 35372 ft 442 kts 64°
2026-04-29 08:49 49.87278 -50.52620 35371 ft 442 kts 64°
2026-04-29 08:49 49.89455 -50.43705 35368 ft 442 kts 65°
2026-04-29 08:50 49.91625 -50.34784 35370 ft 443 kts 65°
2026-04-29 08:50 49.93792 -50.25839 35388 ft 443 kts 64°
2026-04-29 08:51 49.95959 -50.16855 35376 ft 445 kts 65°
2026-04-29 08:51 49.98128 -50.07832 35382 ft 446 kts 65°
2026-04-29 08:52 50.00244 -49.98769 35365 ft 449 kts 69°
2026-04-29 08:52 50.01487 -49.90885 35369 ft 452 kts 73°
2026-04-29 08:53 50.02701 -49.81981 35377 ft 453 kts 73°
2026-04-29 08:53 50.04008 -49.72410 35383 ft 453 kts 72°
2026-04-29 08:54 50.05349 -49.62836 35373 ft 453 kts 72°
2026-04-29 08:54 50.06703 -49.53266 35374 ft 453 kts 72°
2026-04-29 08:55 50.08053 -49.43690 35373 ft 452 kts 72°
2026-04-29 08:55 50.09394 -49.34119 35372 ft 452 kts 72°
2026-04-29 08:56 50.10726 -49.24546 35398 ft 452 kts 72°
2026-04-29 08:56 50.12048 -49.14980 35380 ft 452 kts 72°
2026-04-29 08:57 50.13367 -49.05370 35378 ft 452 kts 72°
2026-04-29 08:57 50.14666 -48.95843 35374 ft 452 kts 72°
2026-04-29 08:58 50.15966 -48.86249 35377 ft 452 kts 72°
2026-04-29 08:58 50.17262 -48.76617 35380 ft 453 kts 73°
2026-04-29 08:59 50.18547 -48.67012 35386 ft 453 kts 73°
2026-04-29 08:59 50.19829 -48.57358 35382 ft 454 kts 73°
2026-04-29 09:00 50.21101 -48.47713 35383 ft 454 kts 73°
2026-04-29 09:00 50.22365 -48.38055 35387 ft 455 kts 73°
2026-04-29 09:01 50.23627 -48.28358 35392 ft 455 kts 73°
2026-04-29 09:01 50.24873 -48.18712 35399 ft 456 kts 73°
2026-04-29 09:02 50.26121 -48.08993 35387 ft 457 kts 73°
2026-04-29 09:02 50.27370 -47.99182 35380 ft 457 kts 73°
2026-04-29 09:03 50.28548 -47.89866 35380 ft 457 kts 73°
2026-04-29 09:03 50.29773 -47.80111 35380 ft 457 kts 73°
2026-04-29 09:04 50.30945 -47.70722 35381 ft 457 kts 73°
2026-04-29 09:04 50.32078 -47.61569 35394 ft 457 kts 73°
2026-04-29 09:05 50.33281 -47.51795 35396 ft 457 kts 74°
2026-04-29 09:05 50.34475 -47.42017 35375 ft 458 kts 74°
2026-04-29 09:06 50.35662 -47.32220 35384 ft 458 kts 74°
2026-04-29 09:06 50.36840 -47.22425 35383 ft 458 kts 74°
2026-04-29 09:07 50.38005 -47.12675 35372 ft 458 kts 74°
2026-04-29 09:07 50.39167 -47.02869 35376 ft 458 kts 74°
2026-04-29 09:08 50.40286 -46.93351 35384 ft 458 kts 74°
2026-04-29 09:08 50.41376 -46.84019 35376 ft 458 kts 74°
2026-04-29 09:09 50.42516 -46.74183 35375 ft 458 kts 74°
2026-04-29 09:09 50.43634 -46.64459 35381 ft 459 kts 75°
2026-04-29 09:10 50.44707 -46.55057 35400 ft 459 kts 75°
2026-04-29 09:10 50.45827 -46.45163 35389 ft 459 kts 75°
2026-04-29 09:11 50.46929 -46.35358 35386 ft 460 kts 75°
2026-04-29 09:11 50.48024 -46.25535 35378 ft 460 kts 75°
2026-04-29 09:12 50.49117 -46.15642 35381 ft 460 kts 75°
2026-04-29 09:12 50.50202 -46.05748 35382 ft 460 kts 75°
2026-04-29 09:13 50.51279 -45.95845 35391 ft 460 kts 75°
2026-04-29 09:13 50.52349 -45.85928 35391 ft 460 kts 75°
2026-04-29 09:14 50.53411 -45.76001 35382 ft 460 kts 75°
2026-04-29 09:14 50.54465 -45.66058 35379 ft 460 kts 75°
2026-04-29 09:15 50.55509 -45.56136 35387 ft 460 kts 75°
2026-04-29 09:15 50.56539 -45.46257 35398 ft 460 kts 75°
2026-04-29 09:16 50.57565 -45.36326 35389 ft 460 kts 75°
2026-04-29 09:16 50.58587 -45.26359 35385 ft 460 kts 76°
2026-04-29 09:17 50.59598 -45.16405 35386 ft 460 kts 76°
2026-04-29 09:17 50.60601 -45.06451 35389 ft 460 kts 76°
2026-04-29 09:18 50.61594 -44.96494 35384 ft 460 kts 76°
2026-04-29 09:18 50.62580 -44.86524 35388 ft 461 kts 76°
2026-04-29 09:19 50.63553 -44.76602 35380 ft 461 kts 76°
2026-04-29 09:19 50.64516 -44.66683 35384 ft 461 kts 76°
2026-04-29 09:20 50.65456 -44.56906 35380 ft 461 kts 76°
2026-04-29 09:20 50.66410 -44.46908 35380 ft 461 kts 76°
2026-04-29 09:21 50.67353 -44.36926 35390 ft 461 kts 76°
2026-04-29 09:21 50.68290 -44.26912 35381 ft 461 kts 76°
2026-04-29 09:22 50.69218 -44.16899 35382 ft 462 kts 76°
2026-04-29 09:22 50.70138 -44.06878 35377 ft 462 kts 76°
2026-04-29 09:23 50.71050 -43.96837 35377 ft 462 kts 76°
2026-04-29 09:23 50.71952 -43.86818 35378 ft 461 kts 77°
2026-04-29 09:24 50.72841 -43.76841 35389 ft 462 kts 77°
2026-04-29 09:24 50.73729 -43.66778 35380 ft 462 kts 77°
2026-04-29 09:25 50.74606 -43.56731 35377 ft 462 kts 77°
2026-04-29 09:25 50.75477 -43.46657 35375 ft 463 kts 77°
2026-04-29 09:26 50.76325 -43.36732 35385 ft 463 kts 77°
2026-04-29 09:26 50.77177 -43.26670 35387 ft 463 kts 77°
2026-04-29 09:27 50.78024 -43.16561 35378 ft 463 kts 77°
2026-04-29 09:27 50.78861 -43.06456 35374 ft 463 kts 77°
2026-04-29 09:28 50.79684 -42.96425 35374 ft 463 kts 77°
2026-04-29 09:28 50.80503 -42.86320 35369 ft 463 kts 77°
2026-04-29 09:29 50.81259 -42.76892 35368 ft 463 kts 77°
2026-04-29 09:29 50.82460 -42.61727 35376 ft 464 kts 77°
2026-04-29 09:30 50.83252 -42.51577 35378 ft 464 kts 77°
2026-04-29 09:30 50.84033 -42.41453 35368 ft 464 kts 77°
2026-04-29 09:31 50.84805 -42.31317 35366 ft 464 kts 78°
2026-04-29 09:31 50.85569 -42.21177 35366 ft 463 kts 78°
2026-04-29 09:32 50.86324 -42.11034 35371 ft 464 kts 78°
2026-04-29 09:32 50.87070 -42.00901 35368 ft 464 kts 78°
2026-04-29 09:33 50.87807 -41.90764 35371 ft 464 kts 78°
2026-04-29 09:33 50.88535 -41.80622 35359 ft 464 kts 78°
2026-04-29 09:34 50.89254 -41.70476 35362 ft 464 kts 78°
2026-04-29 09:34 50.89962 -41.60374 35365 ft 464 kts 78°
2026-04-29 09:35 50.90665 -41.50201 35357 ft 464 kts 78°
2026-04-29 09:35 50.91359 -41.40027 35364 ft 465 kts 78°
2026-04-29 09:36 50.92045 -41.29853 35356 ft 465 kts 78°
2026-04-29 09:36 50.92724 -41.19629 35358 ft 465 kts 78°
2026-04-29 09:37 50.93280 -41.11155 35358 ft 465 kts 79°
2026-04-29 09:37 50.93929 -41.01158 35364 ft 466 kts 79°
2026-04-29 09:38 50.94559 -40.91310 35356 ft 466 kts 79°
2026-04-29 09:38 50.95203 -40.81093 35358 ft 466 kts 79°
2026-04-29 09:39 50.95839 -40.70869 35355 ft 465 kts 79°
2026-04-29 09:39 50.96465 -40.60653 35347 ft 464 kts 79°
2026-04-29 09:40 50.97081 -40.50472 35368 ft 464 kts 79°
2026-04-29 09:40 50.97684 -40.40346 35353 ft 463 kts 79°
2026-04-29 09:41 50.98282 -40.30161 35351 ft 463 kts 79°
2026-04-29 09:41 50.98869 -40.20008 35351 ft 463 kts 79°
2026-04-29 09:42 50.99450 -40.09820 35350 ft 463 kts 79°
2026-04-29 09:42 51.00043 -39.99649 35358 ft 461 kts 77°
2026-04-29 09:43 51.01323 -39.89738 35352 ft 457 kts 71°
2026-04-29 09:43 51.02819 -39.79940 35353 ft 457 kts 71°
2026-04-29 09:44 51.04289 -39.70115 35341 ft 457 kts 71°
2026-04-29 09:44 51.05713 -39.60244 35343 ft 458 kts 71°
2026-04-29 09:45 51.07109 -39.50374 35342 ft 458 kts 72°
2026-04-29 09:45 51.08497 -39.40472 35349 ft 459 kts 72°
2026-04-29 09:46 51.09869 -39.30621 35348 ft 459 kts 72°
2026-04-29 09:46 51.11254 -39.20619 35345 ft 460 kts 72°
2026-04-29 09:47 51.12622 -39.10672 35345 ft 460 kts 72°
2026-04-29 09:47 51.13974 -39.00783 35345 ft 461 kts 72°
2026-04-29 09:48 51.15330 -38.90788 35347 ft 461 kts 73°
2026-04-29 09:48 51.16677 -38.80791 35344 ft 462 kts 73°
2026-04-29 09:49 51.18017 -38.70788 35339 ft 462 kts 73°
2026-04-29 09:49 51.19351 -38.60758 35339 ft 462 kts 73°
2026-04-29 09:50 51.20618 -38.51161 35337 ft 462 kts 73°
2026-04-29 09:50 51.21932 -38.41143 35339 ft 462 kts 74°
2026-04-29 09:51 51.23144 -38.31833 35335 ft 462 kts 74°
2026-04-29 09:51 51.24446 -38.21770 35333 ft 463 kts 75°
2026-04-29 09:52 51.25731 -38.11758 35332 ft 464 kts 75°
2026-04-29 09:52 51.27018 -38.01664 35332 ft 464 kts 75°
2026-04-29 09:53 51.28301 -37.91526 35333 ft 465 kts 76°
2026-04-29 09:53 51.29575 -37.81384 35335 ft 467 kts 76°
2026-04-29 09:54 51.30844 -37.71205 35328 ft 468 kts 76°
2026-04-29 09:54 51.32108 -37.60988 35327 ft 469 kts 76°
2026-04-29 09:55 51.33368 -37.50733 35322 ft 470 kts 76°
2026-04-29 09:55 51.34617 -37.40480 35315 ft 471 kts 77°
2026-04-29 09:56 51.35861 -37.30190 35324 ft 471 kts 77°
2026-04-29 09:56 51.37098 -37.19888 35319 ft 472 kts 77°
2026-04-29 09:57 51.38326 -37.09568 35317 ft 472 kts 77°
2026-04-29 09:57 51.39544 -36.99252 35316 ft 472 kts 77°
2026-04-29 09:58 51.40755 -36.88918 35314 ft 472 kts 78°
2026-04-29 09:58 51.41959 -36.78553 35317 ft 473 kts 78°
2026-04-29 09:59 51.43148 -36.68244 35311 ft 474 kts 78°
2026-04-29 09:59 51.44336 -36.57849 35298 ft 475 kts 79°
2026-04-29 10:00 51.45517 -36.47425 35303 ft 476 kts 79°
2026-04-29 10:00 51.46692 -36.36982 35302 ft 477 kts 79°
2026-04-29 10:01 51.47862 -36.26491 35299 ft 478 kts 79°
2026-04-29 10:01 51.49021 -36.16006 35297 ft 478 kts 79°
2026-04-29 10:02 51.50174 -36.05490 35289 ft 478 kts 79°
2026-04-29 10:02 51.51316 -35.94978 35298 ft 478 kts 80°
2026-04-29 10:03 51.52448 -35.84465 35288 ft 477 kts 81°
2026-04-29 10:03 51.53563 -35.74028 35293 ft 477 kts 81°
2026-04-29 10:04 51.54674 -35.63525 35289 ft 477 kts 81°
2026-04-29 10:04 51.55731 -35.53447 35284 ft 477 kts 81°
2026-04-29 10:05 51.56824 -35.42927 35295 ft 477 kts 81°
2026-04-29 10:05 51.57911 -35.32380 35280 ft 478 kts 82°
2026-04-29 10:06 51.58988 -35.21832 35288 ft 479 kts 82°
2026-04-29 10:06 51.60059 -35.11243 35280 ft 480 kts 82°
2026-04-29 10:07 51.61123 -35.00616 35277 ft 481 kts 83°
2026-04-29 10:07 51.62170 -34.90064 35276 ft 482 kts 83°
2026-04-29 10:08 51.63218 -34.79399 35272 ft 482 kts 83°
2026-04-29 10:08 51.64223 -34.69080 35267 ft 483 kts 83°
2026-04-29 10:09 51.65254 -34.58381 35263 ft 483 kts 83°
2026-04-29 10:09 51.66234 -34.48124 35268 ft 483 kts 84°
2026-04-29 10:10 51.67214 -34.37757 35262 ft 482 kts 84°
2026-04-29 10:10 51.68194 -34.27296 35265 ft 482 kts 84°
2026-04-29 10:11 51.69186 -34.16602 35247 ft 481 kts 85°
2026-04-29 10:11 51.70164 -34.05944 35254 ft 481 kts 85°
2026-04-29 10:12 51.71126 -33.95347 35256 ft 481 kts 85°
2026-04-29 10:12 51.72085 -33.84673 35246 ft 480 kts 85°
2026-04-29 10:13 51.73034 -33.74008 35252 ft 480 kts 86°
2026-04-29 10:13 51.73938 -33.63725 35248 ft 481 kts 86°
2026-04-29 10:14 51.74871 -33.53021 35248 ft 481 kts 86°
2026-04-29 10:14 51.75792 -33.42324 35243 ft 481 kts 86°
2026-04-29 10:15 51.76705 -33.31610 35235 ft 482 kts 86°
2026-04-29 10:15 51.77609 -33.20881 35238 ft 482 kts 86°
2026-04-29 10:16 51.78352 -33.11966 35237 ft 482 kts 86°
2026-04-29 10:16 51.79361 -32.99729 35210 ft 482 kts 87°
2026-04-29 10:17 51.80187 -32.89593 35231 ft 482 kts 87°
2026-04-29 10:17 51.81053 -32.78849 35215 ft 482 kts 88°
2026-04-29 10:18 51.81910 -32.68079 35230 ft 483 kts 88°
2026-04-29 10:18 51.82757 -32.57304 35223 ft 484 kts 88°
2026-04-29 10:19 51.83595 -32.46517 35227 ft 485 kts 88°
2026-04-29 10:19 51.84427 -32.35689 35217 ft 485 kts 88°
2026-04-29 10:20 51.85250 -32.24845 35204 ft 486 kts 89°
2026-04-29 10:20 51.86062 -32.13996 35209 ft 486 kts 89°
2026-04-29 10:21 51.86861 -32.03191 35212 ft 487 kts 89°
2026-04-29 10:21 51.87661 -31.92224 35204 ft 487 kts 89°
2026-04-29 10:22 51.88442 -31.81396 35207 ft 487 kts 89°
2026-04-29 10:22 51.89216 -31.70518 35185 ft 486 kts 90°
2026-04-29 10:23 51.89980 -31.59625 35191 ft 486 kts 91°
2026-04-29 10:23 51.90608 -31.50569 35187 ft 486 kts 91°
2026-04-29 10:24 51.91353 -31.39671 35196 ft 486 kts 91°
2026-04-29 10:24 51.92089 -31.28773 35186 ft 486 kts 91°
2026-04-29 10:25 51.92813 -31.17883 35186 ft 486 kts 91°
2026-04-29 10:25 51.93527 -31.07000 35188 ft 486 kts 91°
2026-04-29 10:26 51.94230 -30.96123 35192 ft 486 kts 91°
2026-04-29 10:26 51.94924 -30.85236 35191 ft 485 kts 91°
2026-04-29 10:27 51.95945 -30.68914 35166 ft 484 kts 92°
2026-04-29 10:28 51.96612 -30.58046 35165 ft 484 kts 92°
2026-04-29 10:28 51.97266 -30.47205 35170 ft 483 kts 92°
2026-04-29 10:29 51.97911 -30.36367 35172 ft 482 kts 92°
2026-04-29 10:29 51.98544 -30.25551 35161 ft 482 kts 92°
2026-04-29 10:30 51.99168 -30.14729 35154 ft 481 kts 92°
2026-04-29 10:30 51.99779 -30.03961 35155 ft 481 kts 93°
2026-04-29 10:31 52.00338 -29.93153 35160 ft 480 kts 94°
2026-04-29 10:31 52.00772 -29.82340 35150 ft 479 kts 94°
2026-04-29 10:32 52.01183 -29.71531 35144 ft 480 kts 95°
2026-04-29 10:32 52.01597 -29.60773 35137 ft 480 kts 95°
2026-04-29 10:33 52.02016 -29.49877 35141 ft 481 kts 95°
2026-04-29 10:33 52.02423 -29.39097 35116 ft 482 kts 94°
2026-04-29 10:34 52.02824 -29.28238 35133 ft 482 kts 95°
2026-04-29 10:34 52.03214 -29.17385 35130 ft 481 kts 95°
2026-04-29 10:35 52.03593 -29.06543 35131 ft 480 kts 95°
2026-04-29 10:35 52.03962 -28.95720 35126 ft 479 kts 95°
2026-04-29 10:36 52.04319 -28.84922 35126 ft 479 kts 95°
2026-04-29 10:36 52.04665 -28.74146 35128 ft 478 kts 95°
2026-04-29 10:37 52.05002 -28.63361 35125 ft 477 kts 95°
2026-04-29 10:37 52.05329 -28.52580 35119 ft 476 kts 95°
2026-04-29 10:38 52.05646 -28.41818 35118 ft 476 kts 95°
2026-04-29 10:38 52.05952 -28.31086 35123 ft 475 kts 95°
2026-04-29 10:39 52.06248 -28.20353 35107 ft 474 kts 95°
2026-04-29 10:39 52.06534 -28.09643 35113 ft 474 kts 95°
2026-04-29 10:40 52.06810 -27.98937 35121 ft 473 kts 95°
2026-04-29 10:40 52.07075 -27.88238 35122 ft 473 kts 95°
2026-04-29 10:41 52.07330 -27.77618 35122 ft 473 kts 95°
2026-04-29 10:41 52.07576 -27.66936 35123 ft 473 kts 95°
2026-04-29 10:42 52.07812 -27.56240 35121 ft 473 kts 95°
2026-04-29 10:42 52.08040 -27.45562 35120 ft 472 kts 95°
2026-04-29 10:43 52.08257 -27.34881 35115 ft 472 kts 95°
2026-04-29 10:43 52.08461 -27.24360 35130 ft 472 kts 95°
2026-04-29 10:44 52.08651 -27.14087 35129 ft 473 kts 95°
2026-04-29 10:44 52.08840 -27.03377 35122 ft 473 kts 95°
2026-04-29 10:45 52.09020 -26.92701 35120 ft 472 kts 95°
2026-04-29 10:45 52.09189 -26.82048 35140 ft 472 kts 95°
2026-04-29 10:46 52.09341 -26.71889 35122 ft 471 kts 95°
2026-04-29 10:46 52.09491 -26.61263 35136 ft 470 kts 95°
2026-04-29 10:47 52.09632 -26.50639 35135 ft 469 kts 95°
2026-04-29 10:47 52.09762 -26.40042 35130 ft 468 kts 94°
2026-04-29 10:48 52.09882 -26.29540 35147 ft 467 kts 94°
2026-04-29 10:48 52.09992 -26.18961 35154 ft 467 kts 95°
2026-04-29 10:49 52.10093 -26.08394 35152 ft 468 kts 95°
2026-04-29 10:49 52.10182 -25.98148 35163 ft 469 kts 95°
2026-04-29 10:50 52.10266 -25.87523 35150 ft 469 kts 94°
2026-04-29 10:50 52.10340 -25.76917 35154 ft 469 kts 94°
2026-04-29 10:51 52.10405 -25.66314 35162 ft 469 kts 94°
2026-04-29 10:51 52.10460 -25.55689 35163 ft 469 kts 94°
2026-04-29 10:52 52.10505 -25.45142 35160 ft 469 kts 95°
2026-04-29 10:52 52.10540 -25.34529 35152 ft 468 kts 94°
2026-04-29 10:53 52.10567 -25.23942 35178 ft 468 kts 94°
2026-04-29 10:53 52.10583 -25.13365 35173 ft 467 kts 94°
2026-04-29 10:54 52.10591 -25.02794 35174 ft 467 kts 94°
2026-04-29 10:54 52.10588 -24.92230 35180 ft 466 kts 95°
2026-04-29 10:55 52.10577 -24.81756 35180 ft 466 kts 95°
2026-04-29 10:55 52.10556 -24.71198 35177 ft 465 kts 94°
2026-04-29 10:56 52.10526 -24.60699 35180 ft 465 kts 94°
2026-04-29 10:56 52.10486 -24.50175 35183 ft 465 kts 94°
2026-04-29 10:57 52.10437 -24.39664 35191 ft 465 kts 94°
2026-04-29 10:57 52.10378 -24.29154 35191 ft 465 kts 94°
2026-04-29 10:58 52.10310 -24.18655 35192 ft 465 kts 94°
2026-04-29 10:58 52.10233 -24.08131 35197 ft 465 kts 94°
2026-04-29 10:59 52.10147 -23.97611 35196 ft 465 kts 94°
2026-04-29 10:59 52.10051 -23.87102 35196 ft 465 kts 95°
2026-04-29 11:00 52.09947 -23.76642 35198 ft 465 kts 95°
2026-04-29 11:00 52.09833 -23.66119 35195 ft 465 kts 94°
2026-04-29 11:01 52.09709 -23.55610 35197 ft 464 kts 94°
2026-04-29 11:01 52.09576 -23.45126 35200 ft 464 kts 94°
2026-04-29 11:02 52.09434 -23.34633 35204 ft 463 kts 94°
2026-04-29 11:02 52.09283 -23.24173 35204 ft 462 kts 95°
2026-04-29 11:03 52.09123 -23.13717 35201 ft 462 kts 94°
2026-04-29 11:03 52.08954 -23.03287 35203 ft 461 kts 94°
2026-04-29 11:04 52.08776 -22.92884 35210 ft 460 kts 94°
2026-04-29 11:04 52.08589 -22.82491 35214 ft 459 kts 95°
2026-04-29 11:05 52.08394 -22.72168 35214 ft 459 kts 95°
2026-04-29 11:05 52.08189 -22.61788 35202 ft 459 kts 94°
2026-04-29 11:06 52.07976 -22.51438 35214 ft 458 kts 94°
2026-04-29 11:06 52.07754 -22.41083 35224 ft 457 kts 94°
2026-04-29 11:07 52.07523 -22.30754 35220 ft 457 kts 94°
2026-04-29 11:07 52.07323 -22.22115 35226 ft 456 kts 94°
2026-04-29 11:08 52.07075 -22.11812 35216 ft 456 kts 94°
2026-04-29 11:08 52.06822 -22.01597 35222 ft 455 kts 94°
2026-04-29 11:09 52.06558 -21.91337 35221 ft 454 kts 94°
2026-04-29 11:09 52.06285 -21.81084 35229 ft 454 kts 94°
2026-04-29 11:10 52.06004 -21.70835 35231 ft 453 kts 94°
2026-04-29 11:10 52.05715 -21.60619 35229 ft 453 kts 94°
2026-04-29 11:11 52.05416 -21.50391 35226 ft 453 kts 94°
2026-04-29 11:11 52.05109 -21.40171 35237 ft 452 kts 95°
2026-04-29 11:12 52.04793 -21.29955 35236 ft 453 kts 95°
2026-04-29 11:12 52.04470 -21.19794 35236 ft 453 kts 95°
2026-04-29 11:13 52.04136 -21.09586 35240 ft 453 kts 95°
2026-04-29 11:13 52.03794 -20.99365 35234 ft 453 kts 95°
2026-04-29 11:14 52.03443 -20.89161 35239 ft 453 kts 95°
2026-04-29 11:14 52.03082 -20.78950 35244 ft 453 kts 95°
2026-04-29 11:15 52.02713 -20.68736 35246 ft 453 kts 95°
2026-04-29 11:15 52.02335 -20.58520 35247 ft 453 kts 95°
2026-04-29 11:16 52.01948 -20.48303 35247 ft 453 kts 95°
2026-04-29 11:16 52.01552 -20.38081 35247 ft 454 kts 95°
2026-04-29 11:17 52.01148 -20.27867 35248 ft 454 kts 95°
2026-04-29 11:17 52.00734 -20.17648 35248 ft 454 kts 95°
2026-04-29 11:18 52.00313 -20.07427 35246 ft 453 kts 95°
2026-04-29 11:18 51.99962 -19.97213 35247 ft 454 kts 91°
2026-04-29 11:19 52.00131 -19.86982 35252 ft 453 kts 89°
2026-04-29 11:19 52.00411 -19.76752 35250 ft 453 kts 89°
2026-04-29 11:20 52.00649 -19.66595 35250 ft 453 kts 89°
2026-04-29 11:20 52.00844 -19.56387 35251 ft 452 kts 89°
2026-04-29 11:21 52.01018 -19.46183 35251 ft 452 kts 90°
2026-04-29 11:21 52.01181 -19.35991 35250 ft 451 kts 90°
2026-04-29 11:22 52.01336 -19.25822 35254 ft 451 kts 90°
2026-04-29 11:22 52.01483 -19.15640 35257 ft 450 kts 90°
2026-04-29 11:23 52.01621 -19.05486 35256 ft 450 kts 90°
2026-04-29 11:23 52.01750 -18.95332 35256 ft 450 kts 90°
2026-04-29 11:24 52.01870 -18.85244 35262 ft 449 kts 90°
2026-04-29 11:24 52.01982 -18.75110 35253 ft 448 kts 90°
2026-04-29 11:25 52.02084 -18.64992 35263 ft 448 kts 90°
2026-04-29 11:25 52.02178 -18.54885 35262 ft 447 kts 90°
2026-04-29 11:26 52.02303 -18.39764 35259 ft 446 kts 90°
2026-04-29 11:26 52.02375 -18.29682 35263 ft 446 kts 90°
2026-04-29 11:27 52.02439 -18.19629 35267 ft 446 kts 90°
2026-04-29 11:27 52.02494 -18.09547 35269 ft 445 kts 90°
2026-04-29 11:28 52.02540 -17.99491 35267 ft 445 kts 90°
2026-04-29 11:28 52.02578 -17.89431 35266 ft 445 kts 90°
2026-04-29 11:29 52.02607 -17.79394 35271 ft 445 kts 90°
2026-04-29 11:29 52.02628 -17.69407 35268 ft 444 kts 90°
2026-04-29 11:30 52.02640 -17.59378 35271 ft 443 kts 90°
2026-04-29 11:30 52.02644 -17.49368 35272 ft 443 kts 90°
2026-04-29 11:31 52.02639 -17.39371 35268 ft 443 kts 90°
2026-04-29 11:31 52.02626 -17.29389 35271 ft 442 kts 90°
2026-04-29 11:32 52.02604 -17.19413 35271 ft 441 kts 90°
2026-04-29 11:32 52.02574 -17.09457 35271 ft 440 kts 90°
2026-04-29 11:33 52.02536 -16.99557 35271 ft 440 kts 90°